• Em Portugal
  • Lista de países
  • Para 7 dias
  • Temperatura da água
  • Mapas de satélite
  • Mapa do tempo
  • Widgets de tempo
  • user-avatar
    Iniciar Sessão

    Previsão horária em Skowierzyn

    Hoje, 19 Setembro, Quarta-feira

    Tempo Temperatura Precipitação Vento Pressão Humidade
    00:00 +17°C° 0 mm 2 m/s 753 mmHg 75%
    01:00 +16°C° 0 mm 2 m/s 753 mmHg 76%
    02:00 +16°C° 0 mm 2 m/s 753 mmHg 77%
    03:00 +16°C° 0 mm 2 m/s 753 mmHg 78%
    04:00 +15°C° 0 mm 2 m/s 753 mmHg 79%
    05:00 +16°C° 0 mm 2 m/s 753 mmHg 77%
    06:00 +17°C° 0 mm 2 m/s 753 mmHg 75%
    07:00 +18°C° 0 mm 2 m/s 753 mmHg 73%
    08:00 +20°C° 0 mm 2 m/s 753 mmHg 65%
    09:00 +23°C° 0 mm 2 m/s 753 mmHg 58%
    10:00 +25°C° 0 mm 3 m/s 753 mmHg 51%
    11:00 +26°C° 0 mm 2 m/s 753 mmHg 48%
    12:00 +27°C° 0 mm 2 m/s 753 mmHg 45%
    13:00 +28°C° 0 mm 2 m/s 753 mmHg 41%
    14:00 +28°C° 0 mm 2 m/s 753 mmHg 43%
    15:00 +28°C° 0 mm 2 m/s 752 mmHg 45%
    16:00 +27°C° 0 mm 1 m/s 752 mmHg 46%
    17:00 +25°C° 0 mm 1 m/s 752 mmHg 51%
    18:00 +23°C° 0 mm 1 m/s 753 mmHg 55%
    19:00 +21°C° 0 mm 1 m/s 753 mmHg 59%
    20:00 +20°C° 0 mm 2 m/s 753 mmHg 61%
    21:00 +19°C° 0 mm 2 m/s 753 mmHg 63%
    22:00 +18°C° 0 mm 2 m/s 753 mmHg 65%
    23:00 +18°C° 0 mm 2 m/s 753 mmHg 66%

    Amanhã, 20 Setembro, Quinta-feira

    Tempo Temperatura Precipitação Vento Pressão Humidade
    00:00 +18°C° 0 mm 2 m/s 753 mmHg 68%
    01:00 +18°C° 0 mm 1 m/s 753 mmHg 70%
    02:00 +18°C° 0 mm 1 m/s 753 mmHg 71%
    03:00 +16°C° 0 mm 1 m/s 753 mmHg 72%
    04:00 +16°C° 0 mm 1 m/s 753 mmHg 73%
    05:00 +18°C° 0 mm 1 m/s 753 mmHg 71%
    06:00 +19°C° 0 mm 1 m/s 753 mmHg 70%
    07:00 +19°C° 0 mm 1 m/s 753 mmHg 68%
    08:00 +22°C° 0 mm 1 m/s 753 mmHg 61%
    09:00 +24°C° 0 mm 2 m/s 753 mmHg 55%
    10:00 +26°C° 0 mm 2 m/s 753 mmHg 49%
    11:00 +27°C° 0 mm 2 m/s 753 mmHg 45%
    12:00 +28°C° 0 mm 2 m/s 753 mmHg 42%
    13:00 +28°C° 0 mm 2 m/s 752 mmHg 38%
    14:00 +28°C° 0 mm 2 m/s 752 mmHg 40%
    15:00 +28°C° 0 mm 1 m/s 752 mmHg 42%
    16:00 +28°C° 0 mm 1 m/s 752 mmHg 44%
    17:00 +26°C° 0 mm 1 m/s 752 mmHg 48%
    18:00 +24°C° 0 mm 1 m/s 752 mmHg 53%
    19:00 +21°C° 0 mm 2 m/s 752 mmHg 57%
    20:00 +20°C° 0 mm 2 m/s 752 mmHg 60%
    21:00 +19°C° 0 mm 2 m/s 752 mmHg 62%
    22:00 +19°C° 0 mm 2 m/s 752 mmHg 65%
    23:00 +18°C° 0 mm 2 m/s 752 mmHg 68%

    Depois de amanhã, 21 Setembro, Sexta-feira

    Tempo Temperatura Precipitação Vento Pressão Humidade
    00:00 +18°C° 0 mm 2 m/s 752 mmHg 71%
    01:00 +17°C° 0 mm 2 m/s 751 mmHg 73%
    02:00 +18°C° 0 mm 1 m/s 751 mmHg 75%
    03:00 +18°C° 0 mm 1 m/s 751 mmHg 77%
    04:00 +16°C° 0 mm 1 m/s 751 mmHg 78%
    05:00 +17°C° 0 mm 2 m/s 751 mmHg 76%
    06:00 +18°C° 0 mm 2 m/s 751 mmHg 74%
    07:00 +18°C° 0 mm 2 m/s 751 mmHg 72%
    08:00 +21°C° 0 mm 2 m/s 751 mmHg 65%
    09:00 +24°C° 0 mm 3 m/s 751 mmHg 58%
    10:00 +26°C° 0 mm 3 m/s 750 mmHg 52%
    11:00 +27°C° 0 mm 3 m/s 750 mmHg 49%
    12:00 +28°C° 0 mm 4 m/s 749 mmHg 45%
    13:00 +29°C° 0 mm 4 m/s 749 mmHg 42%
    14:00 +28°C° 0 mm 4 m/s 748 mmHg 44%
    15:00 +28°C° 0 mm 3 m/s 748 mmHg 46%
    16:00 +28°C° 0 mm 3 m/s 747 mmHg 48%
    17:00 +26°C° 0 mm 4 m/s 747 mmHg 52%
    18:00 +23°C° 0 mm 4 m/s 747 mmHg 56%
    19:00 +22°C° 0 mm 4 m/s 747 mmHg 59%
    20:00 +21°C° 0 mm 4 m/s 747 mmHg 59%
    21:00 +21°C° 0 mm 4 m/s 746 mmHg 59%
    22:00 +20°C° 0 mm 4 m/s 746 mmHg 60%
    23:00 +20°C° 0 mm 4 m/s 746 mmHg 60%

    22 Setembro, Sábado

    Tempo Temperatura Precipitação Vento Pressão Humidade
    00:00 +20°C° 0 mm 4 m/s 745 mmHg 60%
    01:00 +19°C° 0 mm 4 m/s 745 mmHg 60%
    02:00 +19°C° 0 mm 4 m/s 745 mmHg 59%
    03:00 +19°C° 0 mm 4 m/s 745 mmHg 59%
    04:00 +18°C° 0 mm 4 m/s 745 mmHg 58%
    05:00 +16°C° 0 mm 5 m/s 746 mmHg 62%
    06:00 +15°C° 0 mm 6 m/s 748 mmHg 66%
    07:00 +14°C° 0 mm 7 m/s 749 mmHg 70%
    08:00 +14°C° 0.1 mm 7 m/s 749 mmHg 71%
    09:00 +13°C° 0.1 mm 6 m/s 750 mmHg 72%
    10:00 +12°C° 0.1 mm 5 m/s 751 mmHg 73%
    11:00 +12°C° 0.3 mm 5 m/s 751 mmHg 73%
    12:00 +12°C° 0.3 mm 4 m/s 751 mmHg 73%
    13:00 +12°C° 0.3 mm 4 m/s 752 mmHg 73%
    14:00 +12°C° 0.2 mm 4 m/s 751 mmHg 72%
    15:00 +12°C° 0.2 mm 3 m/s 751 mmHg 71%
    16:00 +12°C° 0.2 mm 3 m/s 751 mmHg 70%
    17:00 +11°C° 0 mm 3 m/s 751 mmHg 72%
    18:00 +12°C° 0 mm 2 m/s 752 mmHg 74%
    19:00 +10°C° 0 mm 2 m/s 752 mmHg 76%
    20:00 +10°C° 0 mm 2 m/s 752 mmHg 77%
    21:00 +9°C° 0 mm 3 m/s 752 mmHg 78%
    22:00 +9°C° 0 mm 3 m/s 752 mmHg 79%
    23:00 +9°C° 0 mm 3 m/s 752 mmHg 80%

    23 Setembro, Domingo

    Tempo Temperatura Precipitação Vento Pressão Humidade
    00:00 +9°C° 0 mm 3 m/s 752 mmHg 80%
    01:00 +8°C° 0 mm 3 m/s 752 mmHg 80%
    02:00 +8°C° 0 mm 3 m/s 752 mmHg 80%
    03:00 +8°C° 0 mm 3 m/s 752 mmHg 81%
    04:00 +8°C° 0 mm 3 m/s 752 mmHg 82%
    05:00 +8°C° 0 mm 3 m/s 752 mmHg 79%
    06:00 +9°C° 0 mm 3 m/s 753 mmHg 76%
    07:00 +10°C° 0 mm 3 m/s 753 mmHg 73%
    08:00 +11°C° 0 mm 4 m/s 752 mmHg 65%
    09:00 +13°C° 0 mm 4 m/s 752 mmHg 58%
    10:00 +15°C° 0 mm 4 m/s 752 mmHg 50%
    11:00 +17°C° 0 mm 4 m/s 751 mmHg 47%
    12:00 +17°C° 0 mm 4 m/s 751 mmHg 44%
    13:00 +18°C° 0 mm 4 m/s 750 mmHg 40%
    14:00 +18°C° 0 mm 4 m/s 750 mmHg 42%
    15:00 +18°C° 0 mm 3 m/s 749 mmHg 44%
    16:00 +17°C° 0 mm 3 m/s 749 mmHg 45%
    17:00 +15°C° 0 mm 4 m/s 748 mmHg 49%
    18:00 +14°C° 0 mm 4 m/s 748 mmHg 52%
    19:00 +13°C° 0 mm 5 m/s 747 mmHg 55%
    20:00 +13°C° 0 mm 5 m/s 746 mmHg 54%
    21:00 +14°C° 0 mm 6 m/s 746 mmHg 53%
    22:00 +14°C° 0 mm 6 m/s 745 mmHg 51%
    23:00 +12°C° 0 mm 7 m/s 744 mmHg 52%

    24 Setembro, Segunda-feira

    Tempo Temperatura Precipitação Vento Pressão Humidade
    00:00 +12°C° 0 mm 7 m/s 742 mmHg 53%
    01:00 +12°C° 0 mm 7 m/s 741 mmHg 54%
    02:00 +12°C° 0.4 mm 7 m/s 741 mmHg 58%
    03:00 +11°C° 0.4 mm 6 m/s 741 mmHg 63%
    04:00 +11°C° 0.4 mm 6 m/s 741 mmHg 67%
    05:00 +11°C° 0.4 mm 6 m/s 740 mmHg 69%
    06:00 +12°C° 0.4 mm 5 m/s 740 mmHg 72%
    07:00 +10°C° 0.4 mm 5 m/s 739 mmHg 74%
    08:00 +13°C° 0 mm 5 m/s 739 mmHg 69%
    09:00 +14°C° 0 mm 5 m/s 739 mmHg 64%
    10:00 +15°C° 0 mm 6 m/s 739 mmHg 58%
    11:00 +14°C° 0.3 mm 6 m/s 739 mmHg 64%
    12:00 +13°C° 0.3 mm 5 m/s 739 mmHg 70%
    13:00 +12°C° 0.3 mm 5 m/s 739 mmHg 76%
    14:00 +12°C° 0.2 mm 5 m/s 739 mmHg 76%
    15:00 +12°C° 0.2 mm 5 m/s 739 mmHg 76%
    16:00 +12°C° 0.2 mm 5 m/s 739 mmHg 76%
    17:00 +12°C° 0 mm 5 m/s 739 mmHg 78%
    18:00 +10°C° 0 mm 5 m/s 739 mmHg 80%
    19:00 +11°C° 0 mm 4 m/s 739 mmHg 83%
    20:00 +10°C° 0 mm 5 m/s 740 mmHg 81%
    21:00 +9°C° 0 mm 5 m/s 740 mmHg 79%
    22:00 +9°C° 0 mm 5 m/s 741 mmHg 77%
    23:00 +9°C° 0 mm 5 m/s 741 mmHg 78%
    Mostrar mais